Wind_Speed
9 9 8 7 7 7 7 6 6 7 9 7 7 8 8 8 7 8 8 7 7 7 7 6 6 6 7 7 7 7 7 8 7 7 7 6 6 5 5 6 6 6 6
10 9 9 8 8 7 7 7 6 6 7 8 8 9 8 8 8 8 8 8 8 8 8 7 7 7 7 7 7 7 7 7 8 8 8 8 7 7 6 6 6 6 6
10 10 10 9 9 8 8 7 7 7 7 8 8 9 9 9 9 8 8 8 8 9 9 8 8 7 8 8 8 8 8 8 8 8 8 8 8 7 7 7 7 6 6
10 10 10 10 9 9 9 9 8 9 8 9 9 9 9 9 9 9 9 9 9 9 8 8 8 8 8 8 8 8 8 8 8 9 9 9 9 8 9 8 8 8 8
11 11 11 10 10 10 10 9 9 9 9 9 10 10 10 9 10 9 9 9 9 9 8 8 8 8 9 9 9 9 9 9 9 9 9 9 10 10 10 10 10 9 9
12 12 12 11 11 11 11 10 10 11 11 11 11 11 10 10 11 11 10 10 10 10 10 9 9 9 9 9 9 10 10 10 10 10 10 10 10 11 11 11 11 10 10
13 12 12 12 11 11 12 12 11 12 11 12 11 11 10 10 11 11 11 11 10 10 10 10 10 9 9 8 9 10 11 11 11 11 11 11 11 11 11 12 12 12 11
13 13 12 12 12 12 12 12 12 12 12 12 11 11 10 10 11 11 11 12 11 11 10 10 11 10 10 10 10 11 12 12 12 11 11 11 11 11 11 12 13 13 12
15 15 14 14 14 13 13 13 13 13 13 13 12 11 11 11 11 12 12 12 12 12 11 11 12 11 12 11 12 12 13 13 13 12 12 12 12 12 12 12 12 13 13
17 16 17 17 16 15 14 14 14 14 14 13 13 12 12 12 12 12 12 12 12 13 13 13 13 12 12 12 12 12 13 13 13 13 13 13 13 13 13 13 13 13 13
18 18 17 17 17 16 16 16 16 16 15 15 14 14 14 14 13 13 13 12 12 13 13 14 13 13 12 13 13 13 13 13 13 13 14 14 13 13 13 13 13 14 14
19 18 17 17 17 17 17 17 17 17 17 16 16 16 15 15 15 14 14 14 14 14 14 13 13 14 13 14 14 13 13 13 13 14 14 14 14 14 14 14 14 14 15
18 18 18 18 18 18 19 18 18 18 18 17 17 17 17 16 16 15 15 16 16 15 14 14 14 14 14 14 14 14 14 14 14 14 14 15 15 15 15 15 15 15 15
18 18 18 19 19 19 19 19 19 20 20 19 19 18 18 17 17 17 17 16 16 16 15 15 15 15 16 15 15 16 16 16 16 16 16 16 16 16 17 17 17 17 16
18 18 18 18 19 19 19 20 20 21 21 21 20 19 19 18 18 17 18 18 17 16 16 16 17 17 17 16 16 17 17 17 18 18 17 17 17 17 17 18 18 18 18
20 19 19 19 18 19 20 20 20 20 21 21 21 20 19 19 19 19 18 19 18 17 16 16 17 18 18 18 18 19 19 18 18 19 19 18 18 18 18 19 19 19 19
22 21 21 21 20 20 20 20 19 19 20 20 20 20 20 19 20 20 20 20 19 19 18 18 18 19 19 19 19 19 19 19 20 20 19 19 19 19 19 19 19 20 20
23 23 22 22 22 22 21 21 21 20 20 20 20 20 21 21 21 21 21 20 20 20 20 20 19 19 20 20 19 20 20 20 20 20 21 21 21 21 21 21 20 21 20
23 23 23 23 22 22 22 22 21 21 20 20 20 20 21 21 21 22 22 22 22 22 22 22 21 20 21 20 20 20 20 20 20 20 21 22 22 22 22 22 21 21 21
24 23 23 23 23 22 22 22 22 22 22 22 22 22 22 22 21 21 22 22 23 23 23 23 22 22 22 21 21 21 21 21 22 21 21 22 22 22 22 21 21 22 22
24 24 24 24 23 23 23 23 23 23 23 23 23 22 22 21 21 22 22 22 22 23 23 23 23 23 22 22 22 21 21 21 22 23 22 22 22 22 23 22 22 22 23
24 24 24 24 24 24 24 24 23 23 23 23 23 22 22 23 22 22 22 22 23 23 23 23 23 23 22 22 23 23 23 22 22 23 23 23 23 23 22 22 23 22 23
24 24 24 24 24 24 24 24 23 23 24 24 23 23 23 24 23 23 24 24 24 24 23 23 23 24 23 23 23 23 23 23 22 22 22 22 23 23 23 23 23 23 23
23 24 23 23 23 23 24 24 24 24 24 24 24 24 24 24 24 25 25 25 25 25 25 24 24 25 25 24 24 24 24 24 23 23 22 22 22 22 23 23 23 23 23
22 23 23 23 23 23 24 24 24 24 24 24 24 24 24 25 25 26 26 26 26 26 26 26 26 27 26 26 26 26 25 25 25 24 24 23 23 23 23 23 23 23 24
22 23 23 23 23 23 24 24 24 24 24 24 24 25 25 26 26 27 27 26 27 28 28 27 27 27 28 27 27 27 27 26 26 25 24 24 24 23 23 23 24 25 25
Wind_Direction
293 292 298 289 285 286 281 272 268 260 258 258 253 251 250 252 253 256 257 262 270 273 272 272 268 267 268 268 267 263 259 256 255 256 254 256 250 251 253 252 249 251 255
296 291 293 289 289 283 276 268 264 266 265 262 261 261 258 254 255 258 261 266 268 268 267 267 267 266 265 266 264 262 264 259 255 253 256 256 256 253 258 253 247 251 255
296 291 289 285 285 285 280 274 270 270 269 264 264 263 263 262 260 257 260 263 266 267 266 266 268 270 268 264 262 261 262 263 260 257 253 253 256 257 261 257 247 248 256
298 293 291 287 278 278 278 276 273 271 271 268 264 264 266 265 262 257 257 260 264 265 265 266 269 272 268 262 260 260 262 263 265 264 259 253 255 259 259 260 257 256 261
298 292 289 285 279 278 278 275 274 272 274 275 270 268 266 262 260 259 259 260 260 262 264 265 269 272 267 265 266 264 262 263 264 268 266 257 254 257 257 260 262 263 265
301 294 288 284 282 281 279 275 272 274 277 278 278 272 266 260 258 257 255 257 259 262 262 265 268 271 266 266 268 266 266 264 266 268 266 264 260 260 258 259 263 266 269
298 292 287 283 281 281 276 273 272 274 277 279 279 276 268 261 258 256 254 257 258 261 263 266 269 268 264 267 266 266 265 264 267 269 267 264 265 266 263 259 261 264 267
294 288 285 281 279 278 276 273 271 273 278 278 277 275 273 264 257 257 258 260 261 264 265 266 268 268 264 264 266 267 266 265 267 267 266 265 266 265 264 263 260 262 265
289 286 279 277 277 274 274 272 271 275 277 275 273 271 268 264 260 260 262 262 262 264 266 268 268 270 267 264 266 267 266 266 269 265 267 268 266 264 264 265 264 262 263
284 280 280 280 277 275 272 270 268 273 274 272 271 270 268 265 264 262 263 262 265 265 266 266 269 272 268 267 268 269 269 270 268 266 267 269 267 264 264 266 268 268 268
284 279 278 277 274 273 274 272 269 271 270 270 269 269 270 266 264 263 260 261 265 269 268 268 267 269 269 268 268 270 270 270 268 266 267 268 267 267 267 267 268 269 270
283 281 277 276 274 274 275 275 273 272 270 269 270 269 270 266 262 260 259 261 264 266 267 268 267 265 267 270 271 272 272 269 268 268 267 267 267 265 264 266 269 270 270
281 277 276 277 276 276 275 274 271 270 271 270 270 269 268 265 261 261 261 262 265 264 263 265 268 269 270 270 271 274 274 268 268 269 268 267 267 266 265 266 269 272 273
280 278 276 275 274 274 274 273 271 270 270 270 270 271 269 265 263 261 261 262 263 261 261 264 266 267 267 267 270 271 272 271 268 268 269 267 267 267 266 267 268 270 270
279 279 276 274 274 275 276 274 272 271 271 271 269 270 272 269 265 264 264 263 264 264 262 263 266 267 268 269 270 271 272 270 270 268 269 268 268 269 269 268 268 269 269
282 280 276 276 277 277 275 274 275 273 274 273 271 270 269 268 268 268 267 266 265 265 264 265 267 268 269 270 271 271 271 271 271 269 267 268 269 269 271 270 270 270 270
284 282 281 278 278 278 277 276 276 275 276 274 270 268 267 267 266 266 265 266 266 265 266 268 269 268 268 270 270 269 270 271 271 270 269 270 270 269 271 273 271 270 271
282 282 281 280 277 276 276 275 276 276 276 275 271 268 267 265 264 262 262 263 265 266 267 269 270 270 271 271 271 270 269 270 270 270 272 270 270 270 271 272 271 271 271
276 276 277 279 279 276 274 274 275 275 274 273 272 269 267 265 266 263 262 262 264 266 267 268 270 273 273 272 271 270 271 270 269 271 271 269 270 270 271 270 270 270 271
271 271 273 275 276 276 274 273 275 275 273 271 270 269 267 266 266 264 263 262 263 265 266 268 269 271 272 270 269 270 269 269 269 269 270 269 271 269 270 270 270 270 270
269 270 271 271 272 273 273 274 275 275 274 271 270 268 266 266 266 265 265 264 265 265 266 267 268 270 270 269 270 269 269 268 269 269 270 271 270 269 268 270 270 272 272
270 271 271 269 270 273 274 275 275 274 273 271 269 267 265 265 265 264 265 266 266 267 267 267 268 269 270 271 270 270 271 270 270 271 272 271 271 271 270 269 269 271 273
271 271 272 271 270 271 273 274 275 274 272 270 267 266 265 265 263 263 264 265 266 267 268 268 268 270 271 270 271 272 273 271 272 274 274 272 271 270 270 270 269 269 272
270 270 270 270 271 272 272 274 274 273 273 270 268 268 265 264 263 264 265 265 267 267 267 267 268 269 271 271 272 272 273 273 273 274 275 273 272 271 271 270 268 269 271
270 270 269 270 272 272 273 274 275 274 274 271 269 267 266 264 263 265 265 266 266 266 268 269 269 269 271 270 270 270 270 270 271 272 274 276 274 271 273 271 268 270 271
270 270 271 271 272 273 274 274 274 276 275 274 270 268 267 266 265 265 265 265 266 267 268 269 269 269 269 268 269 269 269 269 270 270 273 275 274 273 273 271 269 269 271
Height
5863 5863 5863 5862 5863 5862 5861 5861 5862 5863 5863 5864 5865 5866 5866 5867 5868 5869 5869 5870 5871 5871 5871 5872 5872 5872 5873 5873 5874 5875 5875 5876 5877 5878 5878 5879 5879 5880 5881 5881 5882 5882 5883
5862 5861 5861 5861 5861 5861 5861 5861 5861 5862 5862 5863 5863 5864 5864 5865 5866 5867 5868 5868 5869 5869 5870 5870 5871 5871 5871 5872 5872 5873 5874 5874 5875 5876 5877 5877 5878 5879 5879 5880 5880 5881 5881
5860 5860 5860 5860 5860 5860 5860 5860 5860 5861 5861 5861 5862 5862 5863 5863 5864 5865 5866 5867 5867 5867 5868 5868 5869 5869 5870 5870 5870 5871 5872 5872 5873 5874 5875 5876 5876 5877 5878 5878 5879 5879 5880
5858 5858 5858 5858 5859 5859 5859 5859 5859 5859 5860 5860 5860 5861 5861 5862 5862 5863 5864 5864 5865 5866 5866 5866 5867 5867 5867 5868 5868 5869 5870 5871 5871 5872 5873 5873 5874 5875 5876 5876 5877 5877 5878
5856 5856 5857 5856 5857 5857 5857 5857 5858 5858 5858 5858 5858 5859 5859 5860 5861 5861 5862 5862 5863 5864 5864 5864 5865 5865 5865 5866 5866 5867 5868 5868 5869 5870 5871 5871 5872 5873 5874 5874 5875 5875 5876
5854 5854 5854 5854 5855 5855 5855 5855 5856 5856 5856 5856 5856 5856 5857 5858 5858 5859 5859 5860 5861 5862 5862 5863 5863 5863 5863 5864 5864 5865 5866 5866 5867 5867 5868 5868 5869 5870 5871 5872 5872 5873 5873
5852 5852 5852 5852 5852 5852 5853 5853 5853 5854 5854 5854 5854 5854 5855 5855 5856 5856 5857 5858 5859 5859 5860 5860 5861 5861 5861 5861 5862 5862 5863 5864 5864 5865 5865 5866 5866 5867 5868 5869 5869 5870 5871
5850 5849 5849 5849 5850 5850 5850 5850 5851 5851 5851 5851 5851 5851 5852 5853 5853 5854 5855 5855 5856 5857 5857 5857 5858 5858 5859 5859 5860 5860 5861 5861 5862 5862 5862 5863 5864 5864 5865 5866 5866 5867 5868
5847 5846 5846 5846 5847 5847 5847 5848 5848 5849 5849 5849 5849 5849 5850 5850 5850 5851 5852 5852 5853 5854 5854 5855 5855 5856 5856 5857 5857 5857 5857 5858 5858 5859 5859 5860 5861 5861 5862 5863 5863 5864 5864
5843 5843 5843 5843 5843 5844 5844 5845 5845 5846 5846 5846 5846 5846 5847 5847 5848 5848 5849 5849 5850 5850 5851 5852 5852 5852 5853 5853 5854 5854 5854 5855 5855 5856 5856 5857 5858 5858 5859 5860 5860 5861 5861
5839 5839 5839 5839 5839 5840 5841 5841 5842 5842 5843 5843 5844 5844 5844 5844 5845 5845 5846 5847 5847 5847 5847 5848 5849 5849 5850 5850 5851 5851 5851 5851 5852 5852 5853 5854 5854 5855 5856 5856 5857 5857 5857
5836 5835 5835 5835 5836 5836 5837 5838 5838 5839 5839 5840 5840 5840 5841 5841 5841 5842 5843 5843 5844 5844 5844 5845 5846 5846 5847 5847 5847 5847 5848 5848 5848 5849 5850 5850 5851 5851 5852 5853 5853 5853 5854
5832 5832 5832 5832 5832 5832 5833 5833 5834 5835 5835 5835 5836 5836 5837 5837 5838 5838 5839 5840 5840 5841 5841 5842 5842 5842 5843 5843 5843 5844 5844 5845 5845 5846 5846 5847 5847 5848 5848 5849 5849 5850 5850
5827 5827 5828 5828 5828 5828 5828 5829 5829 5830 5830 5831 5831 5832 5832 5833 5833 5834 5835 5836 5836 5837 5838 5838 5838 5839 5839 5839 5840 5840 5840 5841 5842 5842 5842 5843 5843 5844 5844 5845 5845 5846 5846
5823 5823 5823 5823 5823 5824 5824 5824 5824 5825 5825 5826 5827 5827 5828 5828 5829 5829 5830 5831 5832 5833 5834 5834 5834 5834 5834 5835 5836 5836 5837 5837 5837 5838 5838 5839 5839 5839 5840 5840 5840 5841 5841
5819 5819 5819 5819 5818 5819 5819 5819 5820 5820 5820 5821 5821 5822 5823 5824 5824 5825 5826 5826 5827 5828 5829 5829 5830 5830 5830 5830 5831 5831 5832 5832 5833 5833 5833 5834 5835 5835 5835 5835 5836 5836 5836
5814 5814 5814 5814 5814 5814 5814 5815 5815 5815 5815 5815 5816 5817 5818 5818 5819 5820 5821 5821 5822 5823 5824 5824 5824 5825 5825 5826 5826 5826 5827 5827 5828 5828 5828 5829 5830 5830 5830 5830 5831 5831 5831
5808 5809 5809 5809 5809 5809 5809 5809 5810 5810 5810 5810 5811 5812 5812 5813 5814 5815 5815 5816 5817 5817 5818 5819 5819 5819 5820 5820 5821 5821 5821 5822 5822 5822 5823 5823 5824 5824 5825 5825 5825 5825 5826
5803 5803 5803 5803 5803 5803 5803 5803 5804 5804 5805 5805 5805 5806 5807 5808 5808 5809 5810 5810 5811 5812 5813 5813 5814 5814 5814 5815 5815 5815 5816 5816 5817 5817 5817 5817 5818 5818 5819 5819 5819 5819 5820
5797 5797 5797 5798 5798 5798 5798 5798 5798 5798 5799 5799 5799 5800 5801 5802 5802 5803 5803 5804 5805 5806 5807 5807 5808 5808 5809 5809 5809 5809 5810 5810 5810 5811 5811 5811 5812 5812 5812 5812 5813 5813 5814
5791 5791 5791 5792 5792 5792 5792 5792 5792 5792 5792 5793 5793 5794 5794 5795 5796 5797 5797 5798 5799 5800 5800 5801 5802 5802 5803 5803 5803 5803 5803 5804 5804 5805 5805 5805 5805 5805 5806 5806 5806 5807 5807
5784 5784 5785 5785 5785 5786 5786 5786 5785 5785 5785 5786 5786 5787 5788 5789 5790 5791 5791 5792 5792 5793 5794 5794 5795 5796 5796 5796 5796 5797 5797 5797 5798 5798 5798 5798 5798 5798 5799 5800 5800 5800 5800
5778 5778 5778 5779 5779 5779 5779 5779 5779 5779 5779 5779 5780 5780 5781 5782 5783 5784 5784 5785 5786 5786 5787 5788 5789 5789 5789 5790 5790 5790 5790 5790 5791 5791 5791 5791 5791 5792 5792 5792 5793 5794 5794
5771 5771 5772 5772 5772 5772 5772 5772 5772 5772 5772 5772 5773 5773 5774 5775 5776 5777 5777 5778 5779 5779 5780 5780 5781 5782 5782 5783 5783 5783 5783 5783 5784 5784 5784 5785 5785 5785 5785 5785 5786 5786 5787
5765 5765 5765 5765 5765 5765 5765 5765 5765 5765 5765 5765 5765 5766 5766 5767 5768 5769 5770 5771 5771 5772 5772 5773 5773 5774 5774 5775 5775 5776 5776 5776 5777 5777 5777 5778 5778 5778 5778 5778 5779 5779 5779
5758 5758 5759 5759 5759 5758 5758 5758 5758 5758 5757 5757 5758 5758 5759 5759 5760 5761 5762 5762 5763 5764 5764 5764 5765 5766 5766 5766 5767 5768 5768 5769 5769 5770 5769 5770 5770 5770 5771 5771 5771 5772 5772